Printer-friendly version

IAU Minor Planet Center

Minor Planet Center

MPEC 2005-N34 : 2005 NZ6

The following Minor Planet Electronic Circular may be linked-to from your own Web pages, but must not otherwise be redistributed electronically.


Read MPEC 2005-N33 Read MPEC 2005-N35


M.P.E.C. 2005-N34                                Issued 2005 July 6, 11:46 UT

     The Minor Planet Electronic Circulars contain information on unusual
         minor planets and routine data on comets.  They are published
   on behalf of Commission 20 of the International Astronomical Union by the
          Minor Planet Center, Smithsonian Astrophysical Observatory,
                          Cambridge, MA 02138, U.S.A.

                  Supported in part by the Brinson Foundation
             Prepared using the Tamkin Foundation Computer Network

                              MPC@CFA.HARVARD.EDU
          URL http://cfa-www.harvard.edu/iau/mpc.html  ISSN 1523-6714

                                   2005 NZ6

Observations:
     K05N06Z* C2005 07 03.42664 21 59 46.83 -30 34 02.7          19.3   EN034644
     K05N06Z  C2005 07 03.43778 21 59 46.60 -30 34 15.4          19.4   EN034644
     K05N06Z  C2005 07 03.45039 21 59 46.33 -30 34 29.6          19.4   EN034644
     K05N06Z  C2005 07 05.38944 21 59 07.11 -31 12 50.0          18.8 R EN034854
     K05N06Z  C2005 07 05.39332 21 59 06.93 -31 12 54.3          18.8 R EN034854
     K05N06Z  C2005 07 05.39718 21 59 06.83 -31 12 59.7          18.8 R EN034854
     K05N06Z  C2005 07 05.40095 21 59 06.64 -31 13 04.5          18.8 R EN034711
     K05N06Z  C2005 07 05.40818 21 59 06.45 -31 13 12.7          18.7 R EN034711
     K05N06Z  C2005 07 05.41541 21 59 06.22 -31 13 22.9          18.6 R EN034711
     K05N06Z 3C2005 07 05.50420 21 59 04.31 -31 15 10.6          18.5 R EN034F65
     K05N06Z 3C2005 07 05.50566 21 59 04.27 -31 15 12.7          19.0 R EN034F65
     K05N06Z 3C2005 07 05.50709 21 59 04.24 -31 15 14.6          18.8 R EN034F65
     K05N06Z 5C2005 07 06.45058 21 58 38.77 -31 35 13.1          19.3 R EN034673
     K05N06Z 5C2005 07 06.45394 21 58 38.61 -31 35 18.5                 EN034673

Observer details:
644 Palomar Mountain/NEAT.  Observers R. Bambery, M. Hicks, K. Lawrence,
    E. Helin, R. Thicksten.  1.2-m Schmidt + CCD.
673 Table Mountain Observatory, Wrightwood.  Observer J. Young.  0.6-m
    reflector + CCD.
711 McDonald Observatory.  Observer J. G. Ries.  0.76-m reflector + CCD
    + prime-focus corrector.
854 Sabino Canyon Observatory, Tucson.  Observer J. E. McGaha.  0.36-m f/10.0
    Schmidt-Cassegrain + CCD.
F65 Haleakala-Faulkes Telescope North.  Observers E. S. Jennings,
    G. W. Edmondson, S. M. Fendius, S. D. W. Wassermann-Fry, A. D. Taylor.
    2.0-m Ritchey-Chretien + CCD.

Orbital elements:
2005 NZ6
Epoch 2005 June 19.0 TT = JDT 2453540.5                 MPC
M 315.57434              (2000.0)            P               Q
n   0.40569353     Peri.   49.47580     +0.04679390     -0.99477843
a   1.8071908      Node    38.13409     +0.86632368     -0.00478657
e   0.8609212      Incl.    8.44611     +0.49728625     +0.10194588
P   2.43           H   17.4           G   0.15
From 14 observations 2005 July 3-6.

Ephemeris:
2005 NZ6                 a,e,i = 1.81, 0.86, 8                   q = 0.2513
Date    TT    R. A. (2000) Decl.     Delta      r     Elong.  Phase     V
2005 06 29    22 00.43   -29 17.7    0.943    1.799   133.2    24.3    19.7
2005 07 09    21 57.17   -32 33.2    0.761    1.685   142.4    21.6    19.0
2005 07 19    21 44.91   -37 33.6    0.596    1.563   150.7    18.5    18.2
2005 07 29    21 13.85   -45 05.6    0.454    1.433   152.4    19.2    17.4
2005 08 08    19 54.86   -54 55.1    0.345    1.293   138.5    31.3    17.0
2005 08 18    16 57.29   -58 42.3    0.285    1.142   110.0    56.4    17.0
2005 08 28    14 15.65   -44 57.2    0.285    0.977    75.1    88.4    17.7

Timothy B. Spahr             (C) Copyright 2005 MPC           M.P.E.C. 2005-N34

Read MPEC 2005-N33 Read MPEC 2005-N35


Our Web policy. Index to the CBAT/MPC/ICQ pages.


Valid HTML 4.01!